Weather in Rozhdestveno

Russia / Vladimir Oblast     56°11′30″N   39°53′05″E
temp.,
°C
wind,
m/s
gust,
m/s
humid.,
%
clouds,
%
prec.,
mm/h
press.,
hPa
HPBL,
m
3 march, wed
wed300:00−3nnw6129281 0.1 1008565
03:00−7nw6148949 0.1 1011399
06:00−8nw7149246 0.0 1012412
09:00−7nw6139062 0.0 1013477
12:00−3nw7119044 0.0 1012751
15:00−1w6108972 0.1 10111015
18:00−2w61387100 0.1 1009644
21:00−3w5129297 0.1 1008435
4 march, thu
thu400:00−3wsw51291100 0.1 1005581
03:00−2wsw71494100 0.2 1003649
06:000w81597100 0.9 999819
09:00−1wnw61384100 2.8 999745
12:00−1wnw6978100 0.0 999933
15:00−2nw4784100 0.0 1000656
18:00−4nw2392100 0.0 100067
21:00−7n2392100 0.0 100131
5 march, fri
fri500:00−8nne2394100 0.0 100152
03:00−10n3495100 0.0 100387
06:00−12n349692 0.0 100559
09:00−12nnw349671 0.0 1006120
12:00−8nnw238929 0.0 1008258
15:00−6nw128454 0.0 1009416
18:00−10s129259 0.0 101021
21:00−10sw229633 0.0 101121
6 march, sat
sat600:00−8nw249675 0.5 1012138
03:00−13nnw479666 0.5 1014124
06:00−15nnw479648 0.0 1015124
09:00−15nnw489024 0.0 1015235
12:00−11nw35820 0.0 1016284
15:00−9wnw35770 0.0 1015590
18:00−11wsw33820 0.0 101425
21:00−12sw479110 0.0 1013119
7 march, sun
sun700:00−12ssw499534 0.0 1011178
03:00−10ssw7138955 0.0 1007397
06:00−9ssw81593100 0.1 1003795
09:00−7ssw91592100 0.6 9981043
12:00−4ssw101692100 0.6 9931083
15:00−2sw101793100 1.9 9891233
18:00−5wnw101592100 2.2 990993
21:00−10sw6148270 2.3 991420